CIEL-2                  
1 33453U 08063A   19261.10327160  .00000054  00000-0  00000+0 0  9992
2 33453   0.0103 197.0464 0003045 355.8143  72.2130  1.00273395 39430
BREEZE-M DEB [TANK]     
1 33454U 08063B   19260.75346183  .00001890  00000-0  55982-3 0  9991
2 33454  49.4829  62.1150 5417460 187.0701 160.2980  4.91091522190631
BREEZE-M R/B            
1 33455U 08063C   19258.13206712  .00000202  00000-0  00000-0 0  9998
2 33455  18.6678 112.8763 5599535 264.6952 345.9859  1.97937659 77824